Eastover, SC

4:22 AM EDT on March 27, 2017 (GMT -0400)
McEntire Angs

Weather History for KMMT - August, 2013

Change the Weather History Date:

Saturday, August 10, 2013

  Actual Average Record
Temperature  
Mean Temperature 82 °F -  
Max Temperature 92 °F 88 °F 104 °F (2007)
Min Temperature 71 °F 70 °F 64 °F (2002)
Cooling Degree Days 16    
Growing Degree Days 32 (Base 50)    
Moisture  
Dew Point 73 °F    
Average Humidity 78    
Maximum Humidity 100    
Minimum Humidity 50    
Precipitation  
Precipitation 0.00 in - - ()
Sea Level Pressure  
Sea Level Pressure 30.11 in    
Wind  
Wind Speed 4 mph (SSW)    
Max Wind Speed 9 mph    
Max Gust Speed -    
Visibility 10 miles    
Events      
Averages and records for this station are not official NWS values.
T = Trace of Precipitation, MM = Missing Value Source: NWS Daily Summary

Daily Weather History Graph

Daily Weather History Graph

Search for Another Location

Airport or City:

Trip Planner

Search our weather history database for the weather conditions in past years. The results will help you decide how hot, cold, wet, or windy it might be!

Date:

Astronomy

Aug. 10, 2013 Rise Set
Actual Time 6:41 AM EDT 8:15 PM EDT
Civil Twilight 6:14 AM EDT 8:41 PM EDT
Nautical Twilight 5:42 AM EDT 9:13 PM EDT
Astronomical Twilight 5:08 AM EDT 9:47 PM EDT
Moon 10:12 AM EDT (8/10) 10:10 PM EDT (8/10)
Length of Visible Light 14h 26m
Length of Day
13h 33m
Waxing Crescent, 14% of the Moon is Illuminated
Aug 10
Waxing Crescent
Aug 14
First Quarter
Aug 20
Full
Aug 28
Last Quarter
Sep 5
New

Hourly Weather History & Observations

Time (EDT) Temp. Heat Index Dew Point Humidity Pressure Visibility Wind Dir Wind Speed Gust Speed Precip Events Conditions
12:58 AM 77.7 °F - 73.2 °F 86% 30.11 in 10.0 mi SW 3.5 mph - N/A   Clear
1:58 AM 77.2 °F - 73.4 °F 88% 30.11 in 10.0 mi SSW 3.5 mph - N/A   Clear
2:58 AM 75.9 °F - 73.8 °F 93% 30.10 in 10.0 mi Calm Calm - N/A   Clear
3:58 AM 73.8 °F - 73.2 °F 98% 30.09 in 10.0 mi Calm Calm - N/A   Clear
4:58 AM 73.8 °F - 73.8 °F 100% 30.11 in 10.0 mi South 2.3 mph - N/A   Clear
5:58 AM 74.1 °F - 74.1 °F 100% 30.11 in 10.0 mi Calm Calm - N/A   Clear
6:38 AM 71.6 °F - 71.6 °F 100% 30.12 in 1.5 mi Calm Calm - N/A   Clear
6:48 AM 71.6 °F - 71.6 °F 100% 30.12 in 5.0 mi Calm Calm - N/A   Clear
6:58 AM 72.7 °F - 72.7 °F 100% 30.12 in 10.0 mi SE 1.2 mph - N/A   Clear
7:58 AM 76.6 °F - 75.9 °F 98% 30.13 in 10.0 mi WSW 3.5 mph - N/A   Scattered Clouds
8:58 AM 80.1 °F 84.8 °F 74.5 °F 83% 30.14 in 10.0 mi SW 6.9 mph - N/A   Mostly Cloudy
9:58 AM 83.7 °F 90.4 °F 73.6 °F 72% 30.13 in 10.0 mi SW 6.9 mph - N/A   Mostly Cloudy
10:58 AM 86.9 °F 93.7 °F 72.7 °F 62% 30.14 in 10.0 mi SSW 9.2 mph - N/A   Scattered Clouds
11:58 AM 89.1 °F 97.0 °F 73.0 °F 59% 30.14 in 10.0 mi West 6.9 mph - N/A   Mostly Cloudy
12:58 PM 90.7 °F 99.6 °F 73.8 °F 57% 30.13 in 10.0 mi South 6.9 mph - N/A   Mostly Cloudy
1:58 PM 91.4 °F 100.1 °F 73.2 °F 55% 30.11 in 10.0 mi South 6.9 mph - N/A   Mostly Cloudy
2:58 PM 90.5 °F 98.6 °F 73.0 °F 56% 30.09 in 10.0 mi South 8.1 mph - N/A   Scattered Clouds
3:58 PM 92.7 °F 101.1 °F 72.9 °F 52% 30.09 in 10.0 mi South 8.1 mph - N/A   Scattered Clouds
4:58 PM 92.5 °F 99.6 °F 71.4 °F 50% 30.06 in 10.0 mi SSW 9.2 mph - N/A   Clear
5:58 PM 91.6 °F 97.7 °F 70.5 °F 50% 30.07 in 10.0 mi SSW 8.1 mph - N/A   Clear
6:58 PM 90.0 °F 96.9 °F 72.0 °F 55% 30.07 in 10.0 mi South 5.8 mph - N/A   Clear
7:58 PM 85.8 °F 92.6 °F 73.0 °F 65% 30.08 in 10.0 mi South 3.5 mph - N/A   Clear
8:58 PM 81.0 °F 87.1 °F 75.6 °F 84% 30.10 in 10.0 mi South 1.2 mph - N/A   Clear
9:58 PM 79.2 °F - 74.7 °F 86% 30.11 in 10.0 mi NNW 4.6 mph - N/A   Clear
10:58 PM 79.2 °F - 74.1 °F 84% 30.12 in 10.0 mi NE 1.2 mph - N/A   Clear
11:58 PM 76.5 °F - 74.5 °F 94% 30.11 in 10.0 mi ESE 2.3 mph - N/A   Clear